[[{"header":{"parameterUnit":"m.s-1","parameterCategory":1,"la1":30.2991,"la2":30.254,"lo1":-89.0895,"lo2":-89.0444,"dy":0.0017,"dx":0.0017,"nx":28,"ny":28,"refTime":"2024-04-18T03:00:00:Z","depth":0,"parameterNumber":2,"parameterNumberName":"U-component_of_WINDS"},"data":[0,0,0,0,0,0,0,0,0,0,0,0,0,0,0,0,0,0,0,0,0,0,0,0,0,0,0,0,0,0,0,0,0,0,0,0,0,0,0,0,0,0,0,0,0,0,0,0,0,0,0,0,0,0,0,0,0,0,0.0152,0.0153,0,0.0266,0.0267,0.0269,0.0323,0.0323,0.0323,0.0323,0.0441,0.0444,0.0447,0,0,0,0,0,0,0,0,0,0,0,0,0,-0.0019,-0.0016,0.0152,0.0153,0.0155,0.0266,0.0268,0.0269,0.0323,0.0323,0.0323,0.0323,0.044,0.0444,0.0448,0,0,0,0,0,0,0,0,0,0,0,0,0,0.0071,-0.0016,0.0152,0.0195,0.02,0.0266,0.0268,0.027,0.0323,0.0323,0.0323,0.0323,0.0439,0.0443,0.0448,0.0479,0,0,0.0463,0.0465,0,0,0,0,0,0,0,0,0.0066,0.0077,0.0187,0.0192,0.0198,0.028,0.025,0.034,0.0324,0.0277,0.0323,0.0323,0.0388,0.0397,0.0418,0.0484,0.0489,0.0463,0.0466,0.0468,0.0469,0,0,0,0,0,0,0,0.0059,0.0073,0.0197,0.0189,0.0196,0.0209,0.0222,0.0268,0.0331,0.0281,0.0285,0.0298,0.0391,0.0414,0.0421,0.0491,0.0463,0.0467,0.047,0.0472,0.0588,0.0588,0,0,0,0,0,0,0.0046,0.0067,0.0194,0.0201,0.013,0.0212,0.0226,0.0254,0.0331,0.0343,0.0298,0.03,0.0405,0.0416,0.0426,0.0467,0.0468,0.0472,0.0475,0.0587,0.0588,0.0588,0,0,0,0,0,0,0.0042,0.0057,0.0189,0.0135,0.0153,0.0215,0.0246,0.0256,0.0279,0.0344,0.0355,0.0309,0.0406,0.0419,0.0465,0.0472,0.0475,0.0479,0.0587,0.0587,0.0588,0.0549,0,0,0,0,0,0,0.0037,0.0055,0.0068,0.0135,0.0155,0.0226,0.0246,0.0259,0.0287,0.0291,0.0358,0.0369,0.0407,0.0458,0.047,0.0478,0.0483,0.0587,0.0587,0.0588,0.055,0.0547,0.0546,0,0,0,0,0,0.0031,0.0052,0.0068,0.0083,0.0172,0.0226,0.0238,0.0281,0.0288,0.0301,0.0342,0.0367,0.0469,0.0462,0.0476,0.0486,0.0587,0.0587,0.0588,0.055,0.0548,0.0546,0,0,0,0,0,0,-0.0015,0.0062,0.008,0.0124,0.0168,0.0236,0.0253,0.0277,0.0321,0.0323,0.0375,0.0389,0.043,0.0463,0.0454,0.0519,0.053,0.0533,0.0497,0.0495,0.0493,0.0485,0.0487,0,0,0,0,0,-0.0021,0.0017,0.0082,0.0115,0.0136,0.019,0.0216,0.0245,0.0293,0.0312,0.0357,0.0402,0.0445,0.0472,0.0514,0.0554,0.0569,0.0568,0.0566,0.0564,0.0566,0.059,0.059,0.0589,0.0589,0.0589,0,0,-0.003,0.0016,0.0037,0.0107,0.0145,0.0182,0.0206,0.0245,0.0273,0.0318,0.0364,0.0398,0.0453,0.0495,0.0517,0.0524,0.057,0.0565,0.0563,0.0566,0.059,0.059,0.059,0.059,0.059,0.059,0,0,-0.0029,0.001,0.0041,0.0078,0.0134,0.017,0.0177,0.0241,0.0265,0.0312,0.0346,0.038,0.0452,0.049,0.0518,0.0531,0.0556,0.0544,0.0534,0.0556,0.0556,0.0556,0.0561,0.0562,0.0546,0.0546,0.0546,0,-0.0049,0.0009,0.0054,0.0091,0.012,0.0162,0.0193,0.0227,0.0294,0.0314,0.0321,0.0411,0.0451,0.0503,0.0506,0.0527,0.0537,0.0537,0.0552,0.0553,0.0554,0.0559,0.0561,0.0544,0.0544,0.0544,0.0544,0,-0.0018,0.0022,0.004,0.0104,0.0135,0.0169,0.0219,0.0245,0.0271,0.0306,0.0353,0.0402,0.0455,0.0469,0.0495,0.0525,0.0527,0.0542,0.0554,0.0551,0.0557,0.0559,0.0541,0.0542,0.0542,0.0543,0,0,-0.0041,0.0046,0.0052,0.0081,0.0145,0.0177,0.0212,0.0263,0.0285,0.0329,0.0361,0.042,0.0434,0.0466,0.0496,0.0516,0.0523,0.0529,0.0531,0.0526,0.0558,0.0546,0.0548,0.0539,0.054,0.054,0.0553,0,-0.0031,0.0035,0.0075,0.0124,0.0161,0.02,0.0231,0.0274,0.0307,0.0343,0.038,0.0422,0.0437,0.0457,0.0477,0.0517,0.053,0.0517,0.0569,0.057,0.0554,0.0551,0.0539,0.0549,0.0556,0.0556,0.0557,0,-0.001,0.0033,0.0086,0.0145,0.0162,0.0189,0.0239,0.0273,0.0322,0.0345,0.038,0.041,0.0449,0.0457,0.0511,0.0501,0.0525,0.0547,0.0549,0.0556,0.0563,0.0558,0.0554,0.0555,0.0561,0.056,0.056,0,-0.0033,0.0039,0.0079,0.0103,0.0173,0.0191,0.0222,0.0271,0.0299,0.0342,0.036,0.0408,0.0434,0.047,0.0512,0.0514,0.0562,0.0573,0.0582,0.0581,0.0591,0.059,0.0591,0.0605,0.0605,0.0605,0.0605,0,-0.0025,0.0005,0.007,0.0095,0.013,0.0176,0.021,0.0243,0.0286,0.0318,0.0355,0.0384,0.0438,0.0474,0.0508,0.0547,0.0559,0.0578,0.0587,0.0575,0.0573,0.0592,0.0592,0.0606,0.0605,0.0605,0.0605,0,-0.0044,0.0001,0.0047,0.011,0.0126,0.0149,0.0203,0.0229,0.0263,0.0303,0.0315,0.037,0.0414,0.046,0.0519,0.0542,0.058,0.0592,0.0563,0.0568,0.0575,0.0573,0.0588,0.0592,0.0603,0.0603,0.0603,0,-0.0042,-0.0017,0.0048,0.0071,0.0101,0.0139,0.0167,0.0213,0.0241,0.0298,0.0317,0.0363,0.0403,0.0471,0.0516,0.0562,0.0575,0.0577,0.0583,0.057,0.0576,0.0574,0.0576,0.0576,0.0575,0.0575,0.0575,0,-0.0043,-0.0022,0.0017,0.0064,0.0096,0.0135,0.0176,0.0193,0.0247,0.0277,0.0322,0.0352,0.0413,0.0459,0.0509,0.0541,0.0567,0.0572,0.0577,0.0566,0.0548,0.0558,0.0559,0.0572,0.0572,0.0573,0.0573,0.0573,-0.0051,-0.0027,0.0022,0.0064,0.0099,0.0136,0.0163,0.02,0.0238,0.0291,0.0316,0.0361,0.0408,0.0479,0.051,0.0546,0.0553,0.056,0.0561,0.0562,0.0559,0.0542,0.0555,0.0555,0.0555,0.0555,0.0555,0,-0.005,-0.0017,0.0022,0.0077,0.011,0.0131,0.0176,0.0203,0.0242,0.0284,0.0322,0.0373,0.0417,0.0465,0.0512,0.0532,0.0545,0.0542,0.0542,0.0549,0.055,0.0541,0.0531,0.0531,0.0531,0.0531,0.0531,0.0531,-0.0045,-0.0005,0.0021,0.0079,0.0112,0.0156,0.018,0.0214,0.0248,0.0303,0.034,0.0371,0.0415,0.0465,0.0507,0.052,0.0535,0.053,0.0546,0.0547,0.0548,0.055,0.0543,0.0533,0.0533,0.0542,0.0542,0.0542]},{"header":{"parameterUnit":"m.s-1","parameterCategory":1,"la1":30.2991,"la2":30.254,"lo1":-89.0895,"lo2":-89.0444,"dy":0.0017,"dx":0.0017,"nx":28,"ny":28,"refTime":"2024-04-18T03:00:00:Z","depth":0,"parameterNumber":3,"parameterNumberName":"V-component_of_WINDS"},"data":[0,0,0,0,0,0,0,0,0,0,0,0,0,0,0,0,0,0,0,0,0,0,0,0,0,0,0,0,0,0,0,0,0,0,0,0,0,0,0,0,0,0,0,0,0,0,0,0,0,0,0,0,0,0,0,0,0,0,2.7072,2.7072,0,2.7052,2.7051,2.7051,2.7002,2.7001,2.7,2.6999,2.6979,2.6979,2.698,0,0,0,0,0,0,0,0,0,0,0,0,0,2.7071,2.7071,2.7072,2.7072,2.7072,2.7052,2.7051,2.7051,2.7002,2.7001,2.6999,2.6998,2.6979,2.6979,2.698,0,0,0,0,0,0,0,0,0,0,0,0,0,2.7063,2.7071,2.7072,2.7045,2.7042,2.7052,2.7051,2.7051,2.7002,2.7001,2.6999,2.6998,2.6979,2.6979,2.698,2.7015,0,0,2.6982,2.6982,0,0,0,0,0,0,0,0,2.7064,2.7063,2.7049,2.7047,2.7044,2.7028,2.7044,2.7039,2.7003,2.7017,2.6999,2.6997,2.6997,2.6996,2.6995,2.7014,2.7013,2.6982,2.6982,2.6983,2.6983,0,0,0,0,0,0,0,2.7064,2.7064,2.7064,2.7049,2.7046,2.7034,2.7031,2.7043,2.7016,2.7016,2.7012,2.701,2.6995,2.6995,2.6994,2.7013,2.6982,2.6983,2.6983,2.6983,2.7061,2.7062,0,0,0,0,0,0,2.7069,2.7065,2.7065,2.7064,2.705,2.7035,2.7032,2.7034,2.7016,2.7011,2.7012,2.7008,2.6994,2.6994,2.6993,2.7034,2.6983,2.6983,2.6984,2.7059,2.7061,2.7063,0,0,0,0,0,0,2.7069,2.7069,2.7066,2.7063,2.7062,2.7037,2.704,2.7035,2.7035,2.7013,2.7008,2.7016,2.6993,2.6993,2.701,2.7032,2.6984,2.6984,2.7057,2.706,2.7062,2.7115,0,0,0,0,0,0,2.7069,2.7069,2.7082,2.7064,2.7062,2.7082,2.7041,2.7036,2.7036,2.7031,2.7016,2.7012,2.6992,2.7009,2.7011,2.7032,2.6985,2.7055,2.7058,2.7061,2.7111,2.7119,2.7125,0,0,0,0,0,2.7069,2.7098,2.7083,2.7083,2.7077,2.7084,2.7083,2.7059,2.7038,2.7051,2.7036,2.7012,2.703,2.7012,2.7013,2.7035,2.7054,2.7057,2.7061,2.7108,2.7117,2.7125,0,0,0,0,0,0,2.712,2.7095,2.7078,2.7102,2.7095,2.7075,2.7091,2.707,2.7069,2.7065,2.7036,2.7033,2.7055,2.7046,2.7027,2.7068,2.7038,2.7042,2.7073,2.7082,2.7089,2.709,2.6985,0,0,0,0,0,2.7134,2.7141,2.7119,2.7142,2.7139,2.7116,2.7118,2.71,2.7092,2.7089,2.7076,2.707,2.7074,2.7077,2.708,2.711,2.7106,2.7125,2.7133,2.7139,2.7143,2.7158,2.7167,2.7075,2.7075,2.7075,0,0,2.7163,2.715,2.7156,2.7152,2.7144,2.7153,2.7114,2.7124,2.713,2.7091,2.7106,2.7097,2.7088,2.7112,2.7122,2.7106,2.7167,2.7143,2.7149,2.7149,2.7163,2.7172,2.718,2.7078,2.7077,2.7077,0,0,2.722,2.7211,2.7229,2.7223,2.7212,2.7196,2.7201,2.7184,2.7176,2.7192,2.7162,2.717,2.7177,2.7172,2.7171,2.7227,2.7204,2.7228,2.7266,2.7282,2.7289,2.7295,2.7316,2.7323,2.7232,2.7232,2.7232,0,2.7257,2.7268,2.7241,2.7253,2.7253,2.7217,2.7236,2.7231,2.7223,2.7223,2.7205,2.7214,2.7206,2.7228,2.7242,2.7242,2.7247,2.723,2.729,2.7296,2.7301,2.7321,2.7328,2.7235,2.7235,2.7235,2.7234,0,2.7315,2.7323,2.7339,2.7331,2.7332,2.7347,2.7324,2.7328,2.7311,2.7297,2.7313,2.7302,2.7302,2.7306,2.7289,2.7326,2.7317,2.7295,2.7264,2.7314,2.7331,2.7338,2.724,2.7239,2.7238,2.7237,0,0,2.7403,2.738,2.7387,2.7383,2.7369,2.7375,2.7389,2.7388,2.7393,2.7388,2.74,2.7407,2.7387,2.7386,2.7368,2.7381,2.7427,2.7358,2.7357,2.7371,2.7468,2.7485,2.7494,2.7412,2.7413,2.7414,2.7469,0,2.7457,2.7479,2.7456,2.7483,2.7491,2.7457,2.747,2.7463,2.7451,2.7456,2.7443,2.7449,2.7421,2.742,2.7432,2.7419,2.7446,2.7415,2.7423,2.7424,2.7427,2.7503,2.752,2.7572,2.7476,2.7477,2.7478,0,2.7522,2.752,2.7548,2.7533,2.7535,2.7547,2.7545,2.755,2.7542,2.7532,2.753,2.7509,2.7522,2.7492,2.7511,2.749,2.7492,2.7486,2.7488,2.7488,2.7454,2.7505,2.7588,2.7596,2.7488,2.7487,2.7486,0,2.7584,2.7588,2.7606,2.7604,2.7586,2.7595,2.7588,2.7579,2.758,2.7578,2.7579,2.758,2.758,2.7581,2.756,2.754,2.7582,2.7549,2.7575,2.7575,2.7585,2.7585,2.767,2.7586,2.7586,2.7586,2.7586,0,2.7646,2.7665,2.7634,2.7644,2.7665,2.7638,2.7659,2.7649,2.7641,2.7649,2.7621,2.763,2.7602,2.7608,2.7592,2.7611,2.7611,2.7604,2.7599,2.7606,2.7607,2.7608,2.7604,2.7588,2.7588,2.7587,2.7587,0,2.7719,2.7699,2.7715,2.7698,2.7693,2.7709,2.7694,2.7704,2.769,2.7701,2.7703,2.7681,2.7687,2.7666,2.7669,2.7658,2.7685,2.7675,2.7688,2.7685,2.7712,2.771,2.78,2.7811,2.772,2.7721,2.7722,0,2.776,2.7774,2.7757,2.7761,2.7756,2.7762,2.7763,2.7738,2.774,2.7733,2.7743,2.7747,2.7748,2.776,2.7745,2.7747,2.7736,2.7768,2.7736,2.7743,2.7737,2.7737,2.7738,2.7774,2.7776,2.7776,2.7777,0,2.7836,2.7825,2.7828,2.7827,2.7829,2.7828,2.7824,2.7829,2.7802,2.7806,2.7812,2.7813,2.7816,2.782,2.7819,2.7812,2.7791,2.7787,2.7793,2.7801,2.7808,2.7805,2.7706,2.7785,2.7784,2.7784,2.7783,2.7783,2.7894,2.7905,2.7895,2.7899,2.7894,2.7891,2.7899,2.7887,2.7891,2.7891,2.7876,2.7884,2.7877,2.7873,2.7869,2.7876,2.7861,2.787,2.7872,2.7875,2.7879,2.7807,2.7875,2.7875,2.7875,2.7875,2.7874,0,2.7969,2.7961,2.7965,2.7961,2.7964,2.7943,2.7938,2.7942,2.795,2.7944,2.7946,2.7953,2.7957,2.7943,2.7945,2.7953,2.7943,2.7955,2.7954,2.7953,2.7892,2.7887,2.7963,2.7963,2.7963,2.7963,2.7963,2.7963,2.8008,2.8025,2.8013,2.8028,2.802,2.8027,2.8027,2.8024,2.802,2.8029,2.8032,2.8022,2.8013,2.8014,2.8017,2.8013,2.8015,2.803,2.8022,2.7966,2.7957,2.7949,2.7944,2.8031,2.8031,2.8083,2.8083,2.8084]}]]